Orbital Elements at Epoch 2459000.5 (2020-May-31.0) TDB
Reference: JPL 11 (heliocentric ecliptic J2000)
Element | Value | Uncertainty (1-sigma) | Units |
e | .1999043606543555 | 5.7935e-08 | |
a | 3.112149789520594 | 2.4303e-08 | au |
q | 2.490017475585893 | 1.7741e-07 | au |
i | 15.53506116762307 | 6.6591e-06 | deg |
node | 149.534852576847 | 1.9138e-05 | deg |
peri | 12.85378533611883 | 2.3613e-05 | deg |
M | 131.1214729605446 | 1.5743e-05 | deg |
tp | 2458270.100473721831 (2018-May-31.60047372) | 8.4087e-05 | TDB |
period | 2005.345299463366 5.49 | 2.349e-05 6.431e-08 | d yr |
n | .1795202053712827 | 2.1028e-09 | deg/d |
Q | 3.734282103455296 | 2.9161e-08 | au |
|
| | Orbit Determination Parameters
Additional Information
|